Starlink 3391

operational
NORAD ID: 51117 Int'l Des: 2022-005 Owner: SPXS Country: US Constellation: starlink
LEOCIRCULAR

About Starlink 3391

Description loading...

Live Position

Loading 3D Globe...

Upcoming Passes

Altitude History

Altitude vs Time

uPlot chart will show altitude changes over time

Two-Line Element Set

1 51117U 22005P 25351.25221920 .00003952 00000-0 26616-3 0 9996
2 51117 53.2180 299.0833 0001329 56.8110 303.3010 15.08854496216432
Epoch: Dec 17, 2025 • Age: 11 hours

Current Status

Altitude 543.9 km
Velocity 7.59 km/s
Sub-Earth Point -16.13°S, 58.36°W
Launch Date Jan 19, 2022
Age 3.9 years
Type internet

Technical Details

Classification Payload
Mass 297.00 kg
Dry Mass 275.00 kg
Total Mass 297.00 kg
Length 0.20 m
Diameter 2.80 m
Span 9.00 m
Shape Box + pan
Manufacturer SPXS
Bus Type Starlink
Phase Status In Orbit
Owner/State SPXS/US

Large Constellations

Loading constellations...